Time,TemperatureF,DewpointF,PressureIn,WindDirection,WindDirectionDegrees,WindSpeedMPH,WindSpeedGustMPH,Humidity,HourlyPrecipIn,Conditions,Clouds,dailyrainin,SoftwareType,DateUTC
2013-02-05 00:02:00,10.0,7.0,-100.00,ENE,70,1.0,3.0,87,0.00,,,0.00,,2013-02-05 09:02:00,
2013-02-05 00:11:00,10.0,7.0,-100.00,ENE,70,1.0,3.0,87,0.00,,,0.00,,2013-02-05 09:11:00,
2013-02-05 00:21:00,9.0,6.0,-100.00,ESE,105,1.0,4.0,86,0.00,,,0.00,,2013-02-05 09:21:00,
2013-02-05 00:51:00,13.0,10.0,-100.00,NE,50,4.0,4.0,87,0.00,,,0.00,,2013-02-05 09:51:00,
2013-02-05 01:01:00,13.0,10.0,-100.00,NE,50,4.0,4.0,87,0.00,,,0.00,,2013-02-05 10:01:00,
2013-02-05 01:21:00,14.0,11.0,-100.00,NE,40,2.0,5.0,87,0.00,,,0.00,,2013-02-05 10:21:00,
2013-02-05 01:52:00,13.0,10.0,-100.00,NE,50,2.0,4.0,87,0.00,,,0.00,,2013-02-05 10:52:00,
2013-02-05 02:01:00,13.0,10.0,-100.00,NE,50,2.0,4.0,87,0.00,,,0.00,,2013-02-05 11:01:00,
2013-02-05 02:22:00,12.0,9.0,-100.00,ENE,60,2.0,5.0,87,0.00,,,0.00,,2013-02-05 11:22:00,
2013-02-05 02:52:00,11.0,8.0,-100.00,NE,45,2.0,4.0,87,0.00,,,0.00,,2013-02-05 11:52:00,
2013-02-05 03:01:00,11.0,8.0,-100.00,NE,45,2.0,4.0,87,0.00,,,0.00,,2013-02-05 12:01:00,
2013-02-05 03:21:00,13.0,10.0,-100.00,East,85,1.0,3.0,87,0.00,,,0.00,,2013-02-05 12:21:00,
2013-02-05 03:52:00,13.0,10.0,-100.00,ESE,115,1.0,2.0,87,0.00,,,0.00,,2013-02-05 12:52:00,
2013-02-05 04:01:00,13.0,10.0,-100.00,ESE,115,1.0,2.0,87,0.00,,,0.00,,2013-02-05 13:01:00,
2013-02-05 04:21:00,11.0,8.0,-100.00,SSW,205,1.0,1.0,87,0.00,,,0.00,,2013-02-05 13:21:00,
2013-02-05 04:51:00,11.0,8.0,-100.00,South,185,1.0,1.0,87,0.00,,,0.00,,2013-02-05 13:51:00,
2013-02-05 05:01:00,11.0,8.0,-100.00,South,185,1.0,1.0,87,0.00,,,0.00,,2013-02-05 14:01:00,
2013-02-05 05:21:00,11.0,8.0,-100.00,SSE,160,3.0,3.0,87,0.00,,,0.00,,2013-02-05 14:21:00,
2013-02-05 05:52:00,10.0,7.0,-100.00,SE,135,2.0,4.0,86,0.00,,,0.00,,2013-02-05 14:52:00,
2013-02-05 06:01:00,10.0,7.0,-100.00,SE,135,2.0,4.0,86,0.00,,,0.00,,2013-02-05 15:01:00,
2013-02-05 06:21:00,10.0,7.0,-100.00,WSW,255,1.0,1.0,86,0.00,,,0.00,,2013-02-05 15:21:00,
2013-02-05 06:52:00,9.0,6.0,-100.00,East,100,1.0,2.0,86,0.00,,,0.00,,2013-02-05 15:52:00,
2013-02-05 07:01:00,9.0,6.0,-100.00,East,100,1.0,2.0,86,0.00,,,0.00,,2013-02-05 16:01:00,
2013-02-05 07:22:00,10.0,6.0,-100.00,East,100,1.0,4.0,86,0.00,,,0.00,,2013-02-05 16:22:00,
2013-02-05 07:51:00,10.0,7.0,-100.00,SSW,195,1.0,2.0,86,0.00,,,0.00,,2013-02-05 16:51:00,
2013-02-05 08:01:00,10.0,7.0,-100.00,SSW,195,1.0,2.0,86,0.00,,,0.00,,2013-02-05 17:01:00,
2013-02-05 08:52:00,8.0,5.0,-100.00,NE,40,1.0,1.0,86,0.00,,,0.00,,2013-02-05 17:52:00,
2013-02-05 09:01:00,8.0,5.0,-100.00,NE,40,1.0,1.0,86,0.00,,,0.00,,2013-02-05 18:01:00,
2013-02-05 09:21:00,8.0,5.0,-100.00,NW,310,0.0,1.0,86,0.00,,,0.00,,2013-02-05 18:21:00,
2013-02-05 09:51:00,7.0,4.0,-100.00,NNE,25,1.0,2.0,85,0.00,,,0.00,,2013-02-05 18:51:00,
2013-02-05 10:02:00,7.0,4.0,-100.00,NNE,25,1.0,2.0,85,0.00,,,0.00,,2013-02-05 19:02:00,
2013-02-05 10:21:00,8.0,4.0,-100.00,NE,40,1.0,2.0,85,0.00,,,0.00,,2013-02-05 19:21:00,
2013-02-05 10:51:00,6.0,3.0,-100.00,SSE,155,1.0,3.0,85,0.00,,,0.00,,2013-02-05 19:51:00,
2013-02-05 11:01:00,6.0,3.0,-100.00,SSE,155,1.0,3.0,85,0.00,,,0.00,,2013-02-05 20:01:00,
2013-02-05 11:21:00,6.0,3.0,-100.00,North,350,1.0,1.0,84,0.00,,,0.00,,2013-02-05 20:21:00,
2013-02-05 11:32:00,6.0,3.0,-100.00,North,350,1.0,1.0,84,0.00,,,0.00,,2013-02-05 20:32:00,
2013-02-05 11:41:00,6.0,3.0,-100.00,North,350,1.0,1.0,84,0.00,,,0.00,,2013-02-05 20:41:00,
2013-02-05 11:52:00,6.0,2.0,-100.00,WNW,295,0.0,2.0,84,0.00,,,0.00,,2013-02-05 20:52:00,
2013-02-05 12:01:00,6.0,2.0,-100.00,WNW,295,0.0,2.0,84,0.00,,,0.00,,2013-02-05 21:01:00,
2013-02-05 12:11:00,6.0,2.0,-100.00,WNW,295,0.0,2.0,84,0.00,,,0.00,,2013-02-05 21:11:00,
2013-02-05 12:21:00,8.0,4.0,-100.00,SSW,205,0.0,1.0,84,0.00,,,0.00,,2013-02-05 21:21:00,
2013-02-05 12:51:00,8.0,4.0,-100.00,SSW,200,0.0,1.0,84,0.00,,,0.00,,2013-02-05 21:51:00,
2013-02-05 13:01:00,8.0,4.0,-100.00,SSW,200,0.0,1.0,84,0.00,,,0.00,,2013-02-05 22:01:00,
2013-02-05 13:21:00,6.0,2.0,-100.00,North,0,2.0,3.0,84,0.00,,,0.00,,2013-02-05 22:21:00,
2013-02-05 13:32:00,6.0,2.0,-100.00,North,0,2.0,3.0,84,0.00,,,0.00,,2013-02-05 22:32:00,
2013-02-05 13:41:00,6.0,2.0,-100.00,North,0,2.0,3.0,84,0.00,,,0.00,,2013-02-05 22:41:00,
2013-02-05 13:51:00,6.0,2.0,-100.00,North,0,1.0,3.0,84,0.00,,,0.00,,2013-02-05 22:51:00,
2013-02-05 14:01:00,6.0,2.0,-100.00,North,0,1.0,3.0,84,0.00,,,0.00,,2013-02-05 23:01:00,
2013-02-05 14:11:00,6.0,2.0,-100.00,North,0,1.0,3.0,84,0.00,,,0.00,,2013-02-05 23:11:00,
2013-02-05 14:21:00,7.0,3.0,-100.00,SW,235,0.0,1.0,84,0.00,,,0.00,,2013-02-05 23:21:00,
2013-02-05 14:32:00,7.0,3.0,-100.00,SW,235,0.0,1.0,84,0.00,,,0.00,,2013-02-05 23:32:00,
2013-02-05 14:41:00,7.0,3.0,-100.00,SW,235,0.0,1.0,84,0.00,,,0.00,,2013-02-05 23:41:00,
2013-02-05 14:52:00,8.0,5.0,-100.00,NE,55,1.0,2.0,84,0.00,,,0.00,,2013-02-05 23:52:00,
2013-02-05 15:01:00,8.0,5.0,-100.00,NE,55,1.0,2.0,84,0.00,,,0.00,,2013-02-06 00:01:00,
2013-02-05 15:11:00,8.0,5.0,-100.00,NE,55,1.0,2.0,84,0.00,,,0.00,,2013-02-06 00:11:00,
2013-02-05 15:21:00,8.0,4.0,-100.00,North,5,0.0,1.0,84,0.00,,,0.00,,2013-02-06 00:21:00,
2013-02-05 15:32:00,8.0,4.0,-100.00,North,5,0.0,1.0,84,0.00,,,0.00,,2013-02-06 00:32:00,
2013-02-05 15:52:00,8.0,4.0,-100.00,NNW,345,1.0,1.0,84,0.00,,,0.00,,2013-02-06 00:52:00,
2013-02-05 16:01:00,8.0,4.0,-100.00,NNW,345,1.0,1.0,84,0.00,,,0.00,,2013-02-06 01:01:00,
2013-02-05 16:11:00,8.0,4.0,-100.00,NNW,345,1.0,1.0,84,0.00,,,0.00,,2013-02-06 01:11:00,
2013-02-05 16:21:00,6.0,2.0,-100.00,North,0,2.0,3.0,84,0.00,,,0.00,,2013-02-06 01:21:00,
2013-02-05 16:32:00,6.0,2.0,-100.00,North,0,2.0,3.0,84,0.00,,,0.00,,2013-02-06 01:32:00,
2013-02-05 16:42:00,6.0,2.0,-100.00,North,0,2.0,3.0,84,0.00,,,0.00,,2013-02-06 01:42:00,
2013-02-05 16:52:00,4.0,1.0,-100.00,NNE,30,1.0,2.0,84,0.00,,,0.00,,2013-02-06 01:52:00,
2013-02-05 17:01:00,4.0,1.0,-100.00,NNE,30,1.0,2.0,84,0.00,,,0.00,,2013-02-06 02:01:00,
2013-02-05 17:11:00,4.0,1.0,-100.00,NNE,30,1.0,2.0,84,0.00,,,0.00,,2013-02-06 02:11:00,
2013-02-05 17:21:00,4.0,0.0,-100.00,North,10,2.0,3.0,84,0.00,,,0.00,,2013-02-06 02:21:00,
2013-02-05 17:32:00,4.0,0.0,-100.00,North,10,2.0,3.0,84,0.00,,,0.00,,2013-02-06 02:32:00,
2013-02-05 17:42:00,4.0,0.0,-100.00,North,10,2.0,3.0,84,0.00,,,0.00,,2013-02-06 02:42:00,
2013-02-05 17:52:00,4.0,0.0,-100.00,North,5,1.0,2.0,84,0.00,,,0.00,,2013-02-06 02:52:00,
2013-02-05 18:02:00,4.0,0.0,-100.00,North,5,1.0,2.0,84,0.00,,,0.00,,2013-02-06 03:02:00,
2013-02-05 18:12:00,4.0,0.0,-100.00,North,5,1.0,2.0,84,0.00,,,0.00,,2013-02-06 03:12:00,
2013-02-05 18:21:00,4.0,0.0,-100.00,NNW,345,1.0,2.0,84,0.00,,,0.00,,2013-02-06 03:21:00,
2013-02-05 18:32:00,4.0,0.0,-100.00,NNW,345,1.0,2.0,84,0.00,,,0.00,,2013-02-06 03:32:00,
2013-02-05 18:42:00,4.0,0.0,-100.00,NNW,345,1.0,2.0,84,0.00,,,0.00,,2013-02-06 03:42:00,
2013-02-05 18:52:00,4.0,0.0,-100.00,North,5,2.0,3.0,83,0.00,,,0.00,,2013-02-06 03:52:00,
2013-02-05 19:02:00,4.0,0.0,-100.00,North,5,2.0,3.0,83,0.00,,,0.00,,2013-02-06 04:02:00,
2013-02-05 19:11:00,4.0,0.0,-100.00,North,5,2.0,3.0,83,0.00,,,0.00,,2013-02-06 04:11:00,
2013-02-05 19:21:00,5.0,1.0,-100.00,North,10,1.0,4.0,84,0.00,,,0.00,,2013-02-06 04:21:00,
2013-02-05 19:31:00,5.0,1.0,-100.00,North,10,1.0,4.0,84,0.00,,,0.00,,2013-02-06 04:31:00,
2013-02-05 19:41:00,5.0,1.0,-100.00,North,10,1.0,4.0,84,0.00,,,0.00,,2013-02-06 04:41:00,
2013-02-05 19:51:00,5.0,1.0,-100.00,NE,40,1.0,2.0,84,0.00,,,0.00,,2013-02-06 04:51:00,
2013-02-05 20:01:00,5.0,1.0,-100.00,NE,40,1.0,2.0,84,0.00,,,0.00,,2013-02-06 05:01:00,
2013-02-05 20:12:00,5.0,1.0,-100.00,NE,40,1.0,2.0,84,0.00,,,0.00,,2013-02-06 05:12:00,
2013-02-05 20:22:00,6.0,2.0,-100.00,NNE,20,1.0,2.0,84,0.00,,,0.00,,2013-02-06 05:22:00,
2013-02-05 20:31:00,6.0,2.0,-100.00,NNE,20,1.0,2.0,84,0.00,,,0.00,,2013-02-06 05:31:00,
2013-02-05 20:41:00,6.0,2.0,-100.00,NNE,20,1.0,2.0,84,0.00,,,0.00,,2013-02-06 05:41:00,
2013-02-05 20:52:00,4.0,0.0,-100.00,NE,35,1.0,2.0,84,0.00,,,0.00,,2013-02-06 05:52:00,
2013-02-05 21:01:00,4.0,0.0,-100.00,NE,35,1.0,2.0,84,0.00,,,0.00,,2013-02-06 06:01:00,
2013-02-05 21:11:00,4.0,0.0,-100.00,NE,35,1.0,2.0,84,0.00,,,0.00,,2013-02-06 06:11:00,
2013-02-05 21:21:00,4.0,0.0,-100.00,North,10,2.0,3.0,83,0.00,,,0.00,,2013-02-06 06:21:00,
2013-02-05 21:31:00,4.0,0.0,-100.00,North,10,2.0,3.0,83,0.00,,,0.00,,2013-02-06 06:31:00,
2013-02-05 21:42:00,4.0,0.0,-100.00,North,10,2.0,3.0,83,0.00,,,0.00,,2013-02-06 06:42:00,
2013-02-05 21:51:00,6.0,2.0,-100.00,NE,40,2.0,4.0,84,0.00,,,0.00,,2013-02-06 06:51:00,
2013-02-05 22:01:00,6.0,2.0,-100.00,NE,40,2.0,4.0,84,0.00,,,0.00,,2013-02-06 07:01:00,
2013-02-05 22:11:00,6.0,2.0,-100.00,NE,40,2.0,4.0,84,0.00,,,0.00,,2013-02-06 07:11:00,
2013-02-05 22:21:00,7.0,3.0,-100.00,NE,35,4.0,6.0,84,0.00,,,0.00,,2013-02-06 07:21:00,
2013-02-05 22:51:00,8.0,5.0,-100.00,NE,55,5.0,7.0,84,0.00,,,0.00,,2013-02-06 07:51:00,
2013-02-05 23:01:00,8.0,5.0,-100.00,NE,55,5.0,7.0,84,0.00,,,0.00,,2013-02-06 08:01:00,
2013-02-05 23:21:00,9.0,5.0,-100.00,NE,45,6.0,9.0,84,0.00,,,0.00,,2013-02-06 08:21:00,
2013-02-05 23:31:00,9.0,5.0,-100.00,NE,45,6.0,9.0,84,0.00,,,0.00,,2013-02-06 08:31:00,
2013-02-05 23:53:00,7.0,4.0,-100.00,NE,55,6.0,7.0,84,0.00,,,0.00,,2013-02-06 08:53:00,